User: anonymous   Login
Location: Unspecified
(0.0000°N, 0.0000°E)
Time: 21:12:44
(UTC+02:00)
Language:

YAOGAN 1 - Orbit

View from above orbital plane
View from above orbital plane
View from above satellite
View from above satellite

Ground track
Ground track

The orbit data is extracted from the following two-line orbital elements,

1 29092U 06015A   14296.08514117  .00001173  00000-0  15472-3 0  1966
2 29092 097.9874 291.2216 0001528 104.6127 295.4773 14.81966720458938
Epoch (UTC): 23 October 2014 02:02:36
Eccentricity: 0.0001528
inclination: 97.9874°
perigee height: 622 km
apogee height: 624 km
right ascension of ascending node: 291.2216°
argument of perigee: 104.6127°
revolutions per day: 14.81966720
mean anomaly at epoch: 295.4773°
orbit number at epoch: 45893

The dashed part of the orbit path shows where the satellite is in the earth's shadow,  

DLR